This is the latest recevied weather packets stored in our database for station/object KB4RFE. If no packets are shown the sender has not sent any weather packets the latest 10 day(s).
| Time | Temp. | Humidity | Pressure | Rain* | Wind** | Luminosity | Snow |
|---|---|---|---|---|---|---|---|
| 1777225994 | 27.78° C | 59% | 1013.8 hPa | 0 mm | - | 1152 W/m² | - |
| 1777225690 | 27.22° C | 62% | 1013.9 hPa | 0 mm | - | 1137 W/m² | - |
| 1777225388 | 26.11° C | 63% | 1013.7 hPa | 0 mm | - | 636 W/m² | - |
| 1777225084 | 26.67° C | 64% | 1013.7 hPa | 0 mm | - | 433 W/m² | - |
| 1777224781 | 26.67° C | 64% | 1013.8 hPa | 0 mm | - | 395 W/m² | - |
| 1777224477 | 27.22° C | 62% | 1013.8 hPa | 0 mm | - | 447 W/m² | - |
| 1777224172 | 27.78° C | 61% | 1013.8 hPa | 0 mm | - | 614 W/m² | - |
| 1777223869 | 27.22° C | 63% | 1013.8 hPa | 0 mm | - | 589 W/m² | - |
| 1777223566 | 27.22° C | 62% | 1013.9 hPa | 0 mm | - | 560 W/m² | - |
| 1777223263 | 26.11° C | 66% | 1013.9 hPa | 0 mm | - | 881 W/m² | - |
| 1777222961 | 26.67° C | 65% | 1014 hPa | 0 mm | - | 425 W/m² | - |
| 1777222658 | 26.67° C | 63% | 1014 hPa | 0 mm | - | 380 W/m² | - |
| 1777222355 | 26.11° C | 65% | 1013.9 hPa | 0 mm | - | 552 W/m² | - |
| 1777222053 | 26.11° C | 66% | 1013.8 hPa | 0 mm | - | 521 W/m² | - |
| 1777221749 | 26.67° C | 64% | 1013.9 hPa | 0 mm | - | 273 W/m² | - |
| 1777221445 | 26.67° C | 65% | 1013.8 hPa | 0 mm | - | 355 W/m² | - |
| 1777221143 | 27.22° C | 62% | 1013.8 hPa | 0 mm | - | 287 W/m² | - |
| 1777220839 | 27.22° C | 62% | 1014 hPa | 0 mm | - | 376 W/m² | - |
| 1777220534 | 26.67° C | 65% | 1013.9 hPa | 0 mm | - | 706 W/m² | - |
| 1777220230 | 27.22° C | 68% | 1014 hPa | 0 mm | - | 679 W/m² | - |
| 1777219926 | 26.67° C | 70% | 1014.1 hPa | 0 mm | - | 546 W/m² | - |
| 1777219623 | 26.67° C | 73% | 1014.2 hPa | 0 mm | - | 429 W/m² | - |
| 1777219320 | 26.11° C | 64% | 1014.1 hPa | 0 mm | - | 395 W/m² | - |
| 1777219016 | 26.11° C | 69% | 1014 hPa | 0 mm | - | 456 W/m² | - |
| 1777218711 | 25.56° C | 69% | 1014.1 hPa | 0 mm | - | 622 W/m² | - |
* Rain latest hour (hover to see other rain measurements)
** Current wind speed in m/s (hover to see current wind gust speed)